Regional Weather Roundup
Issued by NWS

Home | Current Version | Previous Version | Graphics & Text | Print | Product List | Glossary On
Versions: 1 2 3 4 5 6 7 8 9 10 11 12 13 14 15 16 17 18 19 20 21 22 23 24 25 26 27 28 29 30 31 32 33 34 35 36 37 38 39 40 41 42 43 44 45 46 47 48 49 50
000
ASUS43 KIND 301059
RWRIN

WEATHER ROUNDUP FOR INDIANA
NATIONAL WEATHER SERVICE INDIANAPOLIS IN
600 AM EST FRI JAN 30 2015

NOTE: "FAIR" INDICATES FEW OR NO CLOUDS BELOW 12,000 FEET WITH NO
SIGNIFICANT WEATHER AND/OR OBSTRUCTIONS TO VISIBILITY.

* - STATION DOES NOT REPORT WEATHER SUCH AS PRECIPITATION OR FOG.

+ - STATION NOT QUALITY CONTROLLED BY THE NATIONAL WEATHER SERVICE.
    USE DATA WITH CAUTION...ESPECIALLY DEWPOINT AND RELATIVE
    HUMIDITY OBSERVATIONS.

INZ001>003-010>013-019-020-301200-
NORTHWEST INDIANA

CITY           SKY/WX    TMP DP  RH WIND       PRES   REMARKS
VALPARAISO     NOT AVBL

$$

LMZ046-743>745-301200-
SOUTHERN LAKE MICHIGAN

STATION/POSITION TIME  TEMP WIND        PRES
                       AIR  DIR/SP/G
                 (UTC) (F)  (DEG/KT/KT) (MB)
MICHIGAN CITY    1000   26  340/ 24/ 32   N/A

$$

INZ004-005-014>016-021>024-301200-
NORTH CENTRAL INDIANA

CITY           SKY/WX    TMP DP  RH WIND       PRES   REMARKS
GOSHEN         CLOUDY    23  14  68 N18G25    30.35R WCI   9
SOUTH BEND     CLOUDY    24  17  74 N14       30.37R WCI  12

$$

INZ006>009-017-018-025>027-301200-
NORTHEAST INDIANA

CITY           SKY/WX    TMP DP  RH WIND       PRES   REMARKS
ANGOLA *+      MOCLDY    19  10  68 NW13      30.30R WCI   7
FORT WAYNE     PTCLDY    22  14  71 N12       30.34R WCI  10

$$

INZ028-029-035-036-043>045-051>053-301200-
WEST CENTRAL INDIANA

CITY           SKY/WX    TMP DP  RH WIND       PRES   REMARKS
GREENCASTLE +  CLOUDY    30  21  69 NW12G17   30.36R WCI  21
LAFAYETTE      CLOUDY    28  17  63 N21       30.40R WCI  15
TERRE HAUTE    MOCLDY    31  24  75 NW10      30.39R WCI  22

$$

INZ030>032-037>040-046>048-054>057-064-065-301200-
CENTRAL INDIANA

CITY           SKY/WX    TMP DP  RH WIND       PRES   REMARKS
INDIANAPOLIS   FLURRIES  27  23  85 N18       30.35R WCI  14
-EAGLE CREEK   FLURRIES  28  21  75 N18G26    30.35R WCI  15
KOKOMO *+      CLOUDY    27  16  63 N17       30.35R WCI  14
MT COMFORT *+  PTCLDY    28  14  54 N20       30.34R WCI  15
SHELBYVILLE    FLURRIES  31  21  66 N23       30.33R WCI  18

$$

INZ033-034-041-042-049-050-058-059-301200-
EAST CENTRAL INDIANA

CITY           SKY/WX    TMP DP  RH WIND       PRES   REMARKS
MUNCIE         CLOUDY    26  16  65 N21G32    30.33R WCI  12

$$

INZ060-061-067>069-081>083-085>088-301200-
SOUTHWEST INDIANA

CITY           SKY/WX    TMP DP  RH WIND       PRES   REMARKS
EVANSVILLE     CLOUDY    35  21  56 NW14G21   30.43R WCI  26
HUNTINGBURG *+ CLOUDY    34  23  64 NW10      30.40R WCI  26

$$

INZ062-063-066-070>080-084-089>092-301200-
SOUTH CENTRAL AND SOUTHEAST INDIANA

CITY           SKY/WX    TMP DP  RH WIND       PRES   REMARKS
BLOOMINGTON    CLOUDY    32  25  75 NW8       30.35R WCI  25
SEYMOUR +      CLOUDY    36  23  60 NW14G22   30.34R

$$




USA.gov is the U.S. government's official web portal to all federal, state and local government web resources and services.